This is the latest recevied weather packets stored in our database for station/object N0HOT. If no packets are shown the sender has not sent any weather packets the latest 10 day(s).
| Time | Temp. | Humidity | Pressure | Rain* | Wind** | Luminosity | Snow |
|---|---|---|---|---|---|---|---|
| 1777301369 | 13.89° C | 82% | 1003.2 hPa | 1.78 mm | - | 34 W/m² | - |
| 1777301066 | 13.89° C | 81% | 1003.2 hPa | 1.27 mm | - | 19 W/m² | - |
| 1777300763 | 13.89° C | 79% | 1003.2 hPa | 3.05 mm | - | 19 W/m² | - |
| 1777300461 | 14.44° C | 78% | 1003.5 hPa | 3.05 mm | - | 26 W/m² | - |
| 1777300159 | 14.44° C | 76% | 1003.5 hPa | 1.27 mm | - | 26 W/m² | - |
| 1777299855 | 14.44° C | 74% | 1003.5 hPa | 0 mm | - | 35 W/m² | - |
| 1777299553 | 14.44° C | 70% | 1003.5 hPa | 0 mm | - | 37 W/m² | - |
| 1777299250 | 14.44° C | 70% | 1003.8 hPa | 0 mm | - | 49 W/m² | - |
| 1777298947 | 14.44° C | 69% | 1003.8 hPa | 0 mm | - | 50 W/m² | - |
| 1777298644 | 13.89° C | 69% | 1003.8 hPa | 0 mm | - | 53 W/m² | - |
| 1777298340 | 13.89° C | 70% | 1003.8 hPa | 0 mm | - | 63 W/m² | - |
| 1777298036 | 13.89° C | 70% | 1003.5 hPa | 0 mm | - | 76 W/m² | - |
| 1777297731 | 13.89° C | 70% | 1003.8 hPa | 0 mm | - | 53 W/m² | - |
| 1777297430 | 13.89° C | 71% | 1004.2 hPa | 0 mm | - | 31 W/m² | - |
| 1777297126 | 13.89° C | 71% | 1004.2 hPa | 0 mm | - | 31 W/m² | - |
| 1777296824 | 13.89° C | 70% | 1004.2 hPa | 0 mm | - | 31 W/m² | - |
| 1777296519 | 13.89° C | 71% | 1004.2 hPa | 0 mm | - | 38 W/m² | - |
| 1777296215 | 13.89° C | 71% | 1004.5 hPa | 0 mm | - | 32 W/m² | - |
| 1777295912 | 13.89° C | 71% | 1004.5 hPa | 0 mm | - | 27 W/m² | - |
| 1777295609 | 13.89° C | 71% | 1004.2 hPa | 0 mm | - | 41 W/m² | - |
| 1777295306 | 13.33° C | 70% | 1004.8 hPa | 0 mm | - | 34 W/m² | - |
| 1777295004 | 13.33° C | 72% | 1004.8 hPa | 0 mm | - | 18 W/m² | - |
| 1777294701 | 13.33° C | 72% | 1005.3 hPa | 0 mm | - | 16 W/m² | - |
| 1777294396 | 13.33° C | 72% | 1005.3 hPa | 0 mm | - | 12 W/m² | - |
| 1777294093 | 13.33° C | 72% | 1005.3 hPa | 0 mm | - | 10 W/m² | - |
* Rain latest hour (hover to see other rain measurements)
** Current wind speed in m/s (hover to see current wind gust speed)